When you browse on this site, cookies collect data to enhance your experience and personalize the content and advertising you see.
Visit our Privacy Policy to learn more. By continuing to use the site, you agree to this use of cookies and data.
  • In Sweden
  • List of Countries
  • For 7 days
  • Water Temperature
  • Weather Map
  • Weather Widgets
  • user-avatar
    Login

    Hourly Weather Dobrik

    Today, 5 June, Friday

    Time Temperature Precipitation Wind Pressure Humidity
    00:00 +17°C° 0 mm 3 mps 722 mmHg 95%
    01:00 +16°C° 0 mm 3 mps 722 mmHg 95%
    02:00 +13°C° 0 mm 2 mps 723 mmHg 100%
    03:00 +13°C° 0 mm 2 mps 723 mmHg 100%
    04:00 +12°C° 0 mm 3 mps 722 mmHg 98%
    05:00 +12°C° 0 mm 3 mps 723 mmHg 96%
    06:00 +13°C° 0 mm 3 mps 724 mmHg 96%
    07:00 +13°C° 0.1 mm 4 mps 724 mmHg 97%
    08:00 +13°C° 0 mm 4 mps 724 mmHg 97%
    09:00 +14°C° 0 mm 4 mps 724 mmHg 94%
    10:00 +18°C° 0 mm 3 mps 724 mmHg 88%
    11:00 +20°C° 0 mm 4 mps 724 mmHg 82%
    12:00 +21°C° 0 mm 5 mps 724 mmHg 77%
    13:00 +22°C° 0 mm 5 mps 724 mmHg 76%
    14:00 +23°C° 0 mm 6 mps 724 mmHg 79%
    15:00 +23°C° 0 mm 5 mps 724 mmHg 81%
    16:00 +23°C° 0 mm 5 mps 723 mmHg 81%
    17:00 +23°C° 0 mm 5 mps 723 mmHg 84%
    18:00 +22°C° 0 mm 5 mps 723 mmHg 87%
    19:00 +22°C° 0 mm 4 mps 723 mmHg 89%
    20:00 +21°C° 0 mm 4 mps 723 mmHg 92%
    21:00 +20°C° 0 mm 3 mps 723 mmHg 95%
    22:00 +19°C° 0 mm 3 mps 724 mmHg 95%
    23:00 +19°C° 0 mm 3 mps 724 mmHg 95%

    Tomorrow, 6 June, Saturday

    Time Temperature Precipitation Wind Pressure Humidity
    00:00 +18°C° 0 mm 3 mps 725 mmHg 95%
    01:00 +18°C° 0 mm 2 mps 725 mmHg 94%
    02:00 +18°C° 0 mm 2 mps 726 mmHg 90%
    03:00 +18°C° 0 mm 2 mps 726 mmHg 90%
    04:00 +17°C° 0 mm 2 mps 726 mmHg 94%
    05:00 +16°C° 0 mm 2 mps 727 mmHg 94%
    06:00 +16°C° 0 mm 1 mps 727 mmHg 95%
    07:00 +18°C° 0 mm 2 mps 727 mmHg 91%
    08:00 +19°C° 0 mm 2 mps 728 mmHg 87%
    09:00 +20°C° 0 mm 2 mps 729 mmHg 86%
    10:00 +21°C° 0 mm 2 mps 729 mmHg 84%
    11:00 +21°C° 0.2 mm 2 mps 729 mmHg 85%
    12:00 +23°C° 0 mm 1 mps 729 mmHg 83%
    13:00 +24°C° 0 mm 2 mps 729 mmHg 80%
    14:00 +25°C° 0 mm 2 mps 729 mmHg 78%
    15:00 +26°C° 0 mm 2 mps 729 mmHg 76%
    16:00 +26°C° 0 mm 1 mps 728 mmHg 75%
    17:00 +26°C° 0 mm 1 mps 728 mmHg 75%
    18:00 +26°C° 0 mm 1 mps 727 mmHg 76%
    19:00 +25°C° 0 mm 3 mps 727 mmHg 85%
    20:00 +23°C° 0 mm 2 mps 727 mmHg 91%
    21:00 +22°C° 0 mm 3 mps 727 mmHg 91%
    22:00 +21°C° 0 mm 3 mps 727 mmHg 91%
    23:00 +20°C° 0 mm 3 mps 727 mmHg 91%

    Day after tomorrow, 7 June, Sunday

    Time Temperature Precipitation Wind Pressure Humidity
    00:00 +20°C° 0 mm 3 mps 728 mmHg 91%
    01:00 +19°C° 0 mm 3 mps 727 mmHg 91%
    02:00 +18°C° 0 mm 3 mps 728 mmHg 91%
    03:00 +18°C° 0 mm 3 mps 728 mmHg 91%
    04:00 +17°C° 0 mm 3 mps 728 mmHg 91%
    05:00 +17°C° 0 mm 3 mps 727 mmHg 90%
    06:00 +18°C° 0 mm 3 mps 727 mmHg 89%
    07:00 +19°C° 0 mm 3 mps 728 mmHg 86%
    08:00 +21°C° 0 mm 3 mps 728 mmHg 80%
    09:00 +22°C° 0 mm 4 mps 728 mmHg 75%
    10:00 +25°C° 0 mm 4 mps 729 mmHg 72%
    11:00 +26°C° 0 mm 4 mps 728 mmHg 69%
    12:00 +26°C° 0 mm 4 mps 729 mmHg 69%
    13:00 +27°C° 0 mm 4 mps 728 mmHg 69%
    14:00 +28°C° 0 mm 5 mps 728 mmHg 69%
    15:00 +28°C° 0 mm 5 mps 728 mmHg 70%
    16:00 +28°C° 0 mm 4 mps 727 mmHg 71%
    17:00 +27°C° 0 mm 5 mps 727 mmHg 76%
    18:00 +26°C° 0 mm 5 mps 727 mmHg 80%
    19:00 +25°C° 0 mm 2 mps 727 mmHg 86%
    20:00 +24°C° 0 mm 2 mps 727 mmHg 90%
    21:00 +23°C° 0 mm 2 mps 727 mmHg 90%
    22:00 +21°C° 0 mm 2 mps 728 mmHg 90%
    23:00 +20°C° 0 mm 3 mps 728 mmHg 89%

    8 June, Monday

    Time Temperature Precipitation Wind Pressure Humidity
    00:00 +19°C° 0 mm 2 mps 728 mmHg 87%
    01:00 +19°C° 0 mm 2 mps 728 mmHg 84%
    02:00 +18°C° 0 mm 2 mps 728 mmHg 83%
    03:00 +18°C° 0 mm 2 mps 727 mmHg 81%
    04:00 +17°C° 0 mm 2 mps 727 mmHg 79%
    05:00 +17°C° 0 mm 2 mps 727 mmHg 78%
    06:00 +17°C° 0 mm 2 mps 727 mmHg 84%
    07:00 +19°C° 0 mm 1 mps 727 mmHg 90%
    08:00 +21°C° 0 mm 1 mps 727 mmHg 89%
    09:00 +20°C° 0 mm 0 mps 727 mmHg 87%
    10:00 +22°C° 0 mm 0 mps 728 mmHg 81%
    11:00 +25°C° 0 mm 1 mps 728 mmHg 73%
    12:00 +26°C° 0 mm 1 mps 727 mmHg 72%
    13:00 +26°C° 0 mm 1 mps 727 mmHg 73%
    14:00 +26°C° 0 mm 1 mps 726 mmHg 76%
    15:00 +27°C° 0 mm 1 mps 726 mmHg 78%
    16:00 +26°C° 0.1 mm 2 mps 725 mmHg 83%
    17:00 +25°C° 0 mm 2 mps 725 mmHg 85%
    18:00 +25°C° 0 mm 1 mps 725 mmHg 83%
    19:00 +25°C° 0 mm 2 mps 725 mmHg 88%
    20:00 +24°C° 0 mm 2 mps 725 mmHg 90%
    21:00 +23°C° 0 mm 2 mps 726 mmHg 92%
    22:00 +21°C° 0 mm 2 mps 726 mmHg 91%
    23:00 +20°C° 0 mm 2 mps 726 mmHg 92%

    9 June, Tuesday

    Time Temperature Precipitation Wind Pressure Humidity
    00:00 +19°C° 0 mm 2 mps 726 mmHg 91%
    01:00 +19°C° 0 mm 3 mps 726 mmHg 91%
    02:00 +18°C° 0 mm 2 mps 726 mmHg 91%
    03:00 +18°C° 0 mm 2 mps 726 mmHg 92%
    04:00 +17°C° 0 mm 2 mps 726 mmHg 94%
    05:00 +17°C° 0 mm 2 mps 726 mmHg 96%
    06:00 +18°C° 0 mm 2 mps 726 mmHg 97%
    07:00 +19°C° 0 mm 3 mps 727 mmHg 96%
    08:00 +19°C° 0 mm 3 mps 727 mmHg 96%
    09:00 +20°C° 0 mm 2 mps 727 mmHg 96%
    10:00 +21°C° 0 mm 2 mps 728 mmHg 94%
    11:00 +23°C° 0 mm 1 mps 728 mmHg 90%
    12:00 +22°C° 0 mm 0 mps 727 mmHg 86%
    13:00 +25°C° 0 mm 1 mps 727 mmHg 82%
    14:00 +26°C° 0 mm 1 mps 727 mmHg 81%
    15:00 +26°C° 0 mm 1 mps 726 mmHg 79%
    16:00 +23°C° 0.2 mm 6 mps 726 mmHg 90%
    17:00 +25°C° 0.1 mm 1 mps 726 mmHg 82%
    18:00 +25°C° 0 mm 3 mps 726 mmHg 82%
    19:00 +24°C° 0 mm 1 mps 726 mmHg 86%
    20:00 +24°C° 0 mm 1 mps 727 mmHg 95%
    21:00 +22°C° 0.1 mm 1 mps 726 mmHg 92%
    22:00 +22°C° 0 mm 1 mps 727 mmHg 94%
    23:00 +22°C° 0 mm 1 mps 727 mmHg 91%

    10 June, Wednesday

    Time Temperature Precipitation Wind Pressure Humidity
    00:00 +22°C° 0 mm 1 mps 727 mmHg 89%
    01:00 +21°C° 0 mm 1 mps 727 mmHg 88%
    02:00 +21°C° 0 mm 1 mps 727 mmHg 90%
    03:00 +19°C° 0 mm 2 mps 727 mmHg 91%
    04:00 +19°C° 0 mm 2 mps 727 mmHg 90%
    05:00 +20°C° 0 mm 1 mps 727 mmHg 89%
    06:00 +20°C° 0 mm 1 mps 727 mmHg 92%
    07:00 +19°C° 0 mm 0 mps 728 mmHg 94%
    08:00 +22°C° 0 mm 1 mps 728 mmHg 90%
    09:00 +23°C° 0 mm 1 mps 728 mmHg 90%
    10:00 +22°C° 0 mm 0 mps 728 mmHg 90%
    11:00 +23°C° 0 mm 0 mps 727 mmHg 89%
    12:00 +26°C° 0 mm 1 mps 727 mmHg 87%
    13:00 +26°C° 1.2 mm 3 mps 727 mmHg 88%
    14:00 +24°C° 2.6 mm 2 mps 726 mmHg 91%
    15:00 +26°C° 0.5 mm 2 mps 726 mmHg 87%
    16:00 +26°C° 0.3 mm 2 mps 726 mmHg 84%
    17:00 +27°C° 0 mm 3 mps 726 mmHg 78%
    18:00 +26°C° 0 mm 3 mps 726 mmHg 82%
    19:00 +25°C° 0 mm 3 mps 726 mmHg 86%
    20:00 +24°C° 0 mm 3 mps 726 mmHg 88%
    21:00 +22°C° 0 mm 3 mps 727 mmHg 89%
    22:00 +21°C° 0 mm 4 mps 727 mmHg 88%
    23:00 +20°C° 0 mm 4 mps 727 mmHg 89%
    Show more